Location: Hines Observatory
(31.5604°N, 83.5172°W)
Time: 21:50:40
(UTC-04:00)

Daily predictions for brighter satellites

Satellite Brightness Start Highest point End
(mag) Time Altitude Azimuth Time Altitude Azimuth Time Altitude Azimuth
Cosmos 1655 Rocket 4.1 21:07:25 10° N 21:13:38 64° E 21:19:45 10° SSE
Cosmos 1371 Rocket 4.1 21:10:59 10° NNW 21:16:10 79° WSW 21:21:19 10° S
Cosmos 2263 Rocket 2.7 21:11:16 10° SSW 21:16:54 67° WNW 21:22:33 10° NNE
YAOGAN 6 2.5 21:13:32 10° SSE 21:17:05 81° ENE 21:20:36 10° N
Cosmos 158 Rocket 4.0 21:12:06 10° S 21:17:26 74° ESE 21:22:40 10° NNE
Cosmos 1733 3.1 21:14:43 10° N 21:18:29 72° E 21:22:14 10° SSE
Spot 2 Rocket 4.2 21:17:19 10° SE 21:21:53 36° ENE 21:26:28 10° N
Cosmos 1939 Rocket 2.9 21:20:44 10° SSE 21:24:50 83° E 21:28:54 10° N
Cosmos 1452 Rocket 4.4 21:20:14 10° N 21:25:00 33° ENE 21:29:23 12° SE
Cosmos 1603 4.0 21:22:54 10° NNW 21:28:36 70° WSW 21:34:17 10° S
GENESIS II 4.3 21:24:54 10° SSW 21:28:39 52° ESE 21:32:27 10° NE
Palapa 6 Rocket 4.4 21:24:14 10° SW 21:28:45 31° S 21:33:40 12° ESE
Cosmos 2056 Rocket 3.7 21:24:23 10° NNW 21:29:33 75° WSW 21:34:47 10° S
Cosmos 1624 Rocket 4.5 21:28:56 10° NNW 21:34:12 63° WSW 21:39:25 10° S
Cosmos 972 4.4 21:31:36 10° SSW 21:36:40 88° WNW 21:41:34 10° NNE
Cosmos 1758 4.1 21:33:29 10° NNW 21:37:28 53° W 21:41:24 10° S
Cosmos 1707 3.1 21:36:49 10° SSW 21:40:39 65° W 21:44:29 10° N
H-2A R/B 3.4 21:40:37 14° ESE 21:43:46 24° ENE 21:47:58 10° NNE
Meteor 2-11 Rocket 4.4 21:38:40 10° S 21:44:44 89° E 21:50:49 10° N
Cosmos 1607 4.0 21:38:35 10° NNW 21:44:56 73° ENE 21:50:02 16° SE
SJ-11-01 4.3 21:42:40 10° SSE 21:47:24 85° WSW 21:52:10 10° NNW
Cosmos 1315 Rocket 3.0 21:46:05 10° S 21:49:57 51° E 21:53:55 10° NNE
Cosmos 1674 4.3 21:50:51 17° E 21:51:10 17° E 21:53:39 10° NE
Cosmos 1269 Rocket 4.1 21:46:41 10° S 21:51:49 53° ESE 21:56:58 10° NNE
Resurs 1-3 3.9 21:48:41 10° S 21:53:01 65° W 21:57:23 10° NNW
Cosmos 1953 3.5 21:52:40 10° NNW 21:56:26 42° W 22:00:13 10° SSW
Hubble Space Telescope 2.4 21:58:01 10° WSW 22:01:09 21° SSW 22:02:30 18° S
H-II Stage 2 3.0 21:56:39 10° SW 22:01:24 22° S 22:01:49 21° SSE
USA 186 4.3 21:59:03 10° SSW 22:01:35 20° W 22:04:01 10° NW
BREEZE-M R/B 1.7 22:01:02 10° NW 22:04:01 81° SW 22:04:34 49° SE
Cosmos 1812 Rocket 4.1 22:01:52 10° NNW 22:06:09 56° W 22:10:18 11° S
Cosmos 2278 Rocket 3.7 22:08:20 17° E 22:08:20 17° E 22:11:17 10° ENE
ERS-2 2.8 22:05:22 15° S 22:08:11 53° W 22:11:47 10° NNW
Cosmos 1953 Rocket 3.4 22:06:08 17° S 22:09:27 72° E 22:13:49 10° N
Cosmos 1943 3.9 22:04:57 10° NNW 22:10:24 51° WSW 22:15:11 13° S
ATLAS 2AS CENTAUR R/B 3.0 22:06:17 10° SSW 22:13:55 89° ESE 22:22:03 10° NNE
Cosmos 1238 Rocket 1.9 22:13:47 47° SSE 22:14:30 75° E 22:17:26 10° N
Cosmos 1758 Rocket 3.7 22:10:28 10° S 22:14:54 76° W 22:19:21 10° N
Timation 1 Rocket 4.3 22:09:32 10° S 22:15:25 65° ESE 22:21:19 10° NNE
Cosmos 1726 4.3 22:14:00 10° NE 22:15:28 13° ENE 22:15:28 13° ENE
Resurs 01 Rocket 3.0 22:12:05 10° SSW 22:16:08 36° W 22:20:13 10° NNW
Lacrosse 5 3.5 22:11:46 10° WSW 22:16:27 37° NW 22:21:09 10° NNE
ARGOS 3.2 22:13:56 26° SSE 22:17:01 65° ENE 22:22:23 10° N
OAO 3 Rocket 3.8 22:12:38 10° W 22:17:31 58° N 22:21:44 14° ENE
SEDSat Delta rocket 3.9 22:13:08 10° SW 22:17:46 31° SSE 22:18:01 31° SSE
Helios 1B rocket 4.3 22:21:41 10° NE 22:23:15 16° ENE 22:23:15 16° ENE
Cosmos 2251 Rocket 4.4 22:25:25 28° ESE 22:25:33 28° E 22:30:04 10° NE
Iridium 4 Rocket 4.1 22:21:48 10° S 22:27:32 64° W 22:32:54 10° N
MetOp-A 4.1 22:24:48 30° SSE 22:27:32 79° ENE 22:32:54 10° N
ERS-1 Rocket 3.4 22:26:46 35° ESE 22:28:21 46° ENE 22:33:08 10° N
Cosmos 1844 3.6 22:23:41 10° SSW 22:29:19 76° ESE 22:35:03 10° NNE
Cosmos 1844 Rocket 2.8 22:23:50 10° SSW 22:29:29 80° WNW 22:35:10 10° NNE
Cosmos 1346 Rocket 2.9 22:28:24 10° N 22:32:21 54° E 22:32:47 51° ESE
KORONAS-FOTON 4.2 22:33:26 45° E 22:33:26 45° E 22:37:02 10° NNE
SL-08 RB Rocket 3.6 22:35:38 43° SSE 22:37:08 82° ENE 22:41:49 10° N
Meteor 1-24 Rocket 4.1 22:32:17 10° SSW 22:38:15 68° W 22:44:16 10° N
Aurora 2 Rocket 4.1 22:34:41 10° WSW 22:41:05 50° S 22:45:05 30° ESE
ATLAS 3B CENTAUR R/B 4.1 22:22:14 10° SW 22:41:56 48° SSE 22:46:47 29° ESE
USA 215 3.5 22:40:27 31° SSE 22:43:38 58° SW 22:50:05 10° NW
Cosmos 1244 Rocket 4.4 22:42:36 10° N 22:49:00 84° E 22:51:37 38° S
Cosmos 921 Rocket 3.3 22:44:38 10° N 22:49:02 53° ENE 22:49:14 53° E
ATLAS 5 CENTAUR R/B 4.0 22:53:54 11° ENE 22:53:54 11° ENE 22:54:06 10° ENE
NOSS 3-4 (A) 3.6 22:50:38 45° SE 22:51:35 49° ESE 22:57:34 10° NE
NOSS 3-4 (C) 3.6 22:50:51 45° SE 22:51:40 48° ESE 22:57:38 10° NE
Cosmos 1745 Rocket 4.4 22:45:55 10° N 22:51:52 43° E 22:53:00 39° ESE
Landsat 7 4.4 22:54:52 40° ENE 22:54:58 40° ENE 22:59:23 10° N
SL-08 R/B 4.5 22:52:15 10° N 22:58:21 64° E 22:59:48 50° SE
Cosmos 1437 4.2 22:58:22 10° NNW 23:00:50 35° WNW 23:00:50 35° WNW
Cosmos 1908 3.4 22:59:23 10° N 23:02:49 69° NNW 23:02:49 69° NNW
Cosmos 1461 3.6 23:08:01 50° NE 23:08:01 50° NE 23:11:38 10° NNE
S3M 4.0 23:10:10 41° SSW 23:12:35 81° W 23:18:59 10° N
Cosmos 220 Rocket 4.1 23:13:14 68° NW 23:13:14 68° NW 23:17:17 10° N
Terra 2.6 23:14:51 39° ENE 23:14:51 39° ENE 23:18:47 10° N
Meteor 2-1 Rocket 4.3 23:09:13 10° N 23:15:08 80° W 23:16:23 57° S
IGS 5A 4.4 23:19:09 40° NNE 23:19:09 40° NNE 23:22:09 10° N
CZ-2C R/B 3.7 23:13:29 10° NNE 23:17:06 32° ENE 23:17:06 32° ENE
Cosmos 1340 3.8 23:15:33 10° N 23:18:05 40° N 23:18:05 40° N
SPOT 1/Viking Rocket 3.4 23:22:20 78° SW 23:22:34 81° WSW 23:27:43 10° NNW
H-2A R/B 3.4 23:21:14 27° SW 23:22:55 33° W 23:27:43 10° NNW
Cosmos 1110 Rocket 4.0 23:21:06 10° NNW 23:26:14 69° WSW 23:26:21 69° WSW
Cosmos 1300 4.5 23:29:51 10° N 23:31:48 28° N 23:31:48 28° N
Cosmos 1331 Rocket 4.4 23:35:29 10° NNW 23:40:24 56° W 23:40:24 56° W
Cosmos 1842 Rocket 4.5 23:37:37 10° NNW 23:40:56 46° NW 23:40:56 46° NW
USA 238 DEB 3.6 23:36:04 10° NNW 23:43:17 87° WSW 23:44:13 71° SSE
USA 238 3.6 23:36:10 10° NNW 23:43:23 88° WSW 23:44:19 71° SSE
ATLAS 3B R/B 2.5 23:37:25 10° NNW 23:44:01 71° ENE 23:44:26 69° E
Helios 1A 4.4 23:45:57 33° WNW 23:45:57 33° WNW 23:48:57 10° NNW
SPOT 5 3.9 23:47:50 40° W 23:47:50 40° W 23:52:39 10° NNW
Cosmos 1726 4.5 23:48:04 10° NW 23:50:03 21° WNW 23:50:03 21° WNW
Cosmos 2278 Rocket 2.9 23:50:05 42° WSW 23:51:23 50° WNW 23:56:54 10° N
Cosmos 2315 Rocket 3.9 23:52:00 84° ENE 23:52:00 84° ENE 23:58:18 10° N
Cosmos 883 Rocket 4.5 23:51:42 67° WSW 23:52:12 71° W 23:58:24 10° N
